Clermont County, Batavia, OH

3:08 AM EST on November 21, 2019 (GMT -0500)
Clermont County, Batavia

Weather History for KI69 - September, 2019

Change the Weather History Date:

Friday, September 20, 2019

  Actual Average (WUND) Record (WUND)
Temperature  
Mean Temperature 75 °F -  
Max Temperature 85 °F - - (-1)
Min Temperature 65 °F - - (-1)
Cooling Degree Days 10    
Growing Degree Days 25 (Base 50)    
Moisture  
Dew Point 66 °F    
Average Humidity 74    
Maximum Humidity 93    
Minimum Humidity 56    
Precipitation  
Precipitation 0.00 in - - ()
Sea Level Pressure  
Sea Level Pressure 30.18 in    
Wind  
Wind Speed 4 mph (SSW)    
Max Wind Speed 14 mph    
Max Gust Speed 17 mph    
Visibility 10 miles    
Events      
Averages and records for this station are not official NWS values.
T = Trace of Precipitation, MM = Missing Value Source: NWS Daily Summary

Daily Weather History Graph

Daily Weather History Graph

Search for Another Location

Airport or City:

Astronomy

Sep. 20, 2019 Rise Set
Actual Time 7:22 AM EDT 7:37 PM EDT
Civil Twilight 6:55 AM EDT 8:04 PM EDT
Nautical Twilight 6:24 AM EDT 8:35 PM EDT
Astronomical Twilight 5:52 AM EDT 9:07 PM EDT
Moon 11:29 PM EDT (9/20) 1:23 PM EDT (9/20)
Length of Visible Light 13h 08m
Length of Day
12h 14m
Waning Gibbous, 65% of the Moon is Illuminated
Sep 20
Waning Gibbous
Sep 21
Last Quarter
Sep 28
New
Oct 5
First Quarter
Oct 13
Full

Hourly Weather History & Observations

Time (EDT) Temp. Heat Index Dew Point Humidity Pressure Visibility Wind Dir Wind Speed Gust Speed Precip Events Conditions
12:15 AM 71.4 °F - 64.6 °F 79% 30.12 in 10.0 mi Calm Calm - N/A   Clear
12:35 AM 71.2 °F - 64.4 °F 79% 30.13 in 10.0 mi Calm Calm - N/A   Clear
12:55 AM 71.2 °F - 64.4 °F 79% 30.13 in 10.0 mi SSE 3.5 mph - N/A   Clear
1:18 AM 70.7 °F - 64.4 °F 80% 30.13 in 10.0 mi Calm Calm - N/A   Mostly Cloudy
1:37 AM 70.7 °F - 64.4 °F 80% 30.13 in 10.0 mi Calm Calm - N/A   Overcast
1:55 AM 70.3 °F - 64.4 °F 81% 30.14 in 10.0 mi South 3.5 mph - N/A   Scattered Clouds
2:15 AM 70.2 °F - 64.4 °F 82% 30.14 in 10.0 mi South 3.5 mph - N/A   Scattered Clouds
2:35 AM 70.3 °F - 64.4 °F 81% 30.14 in 10.0 mi South 3.5 mph - N/A   Scattered Clouds
2:58 AM 70.5 °F - 64.6 °F 81% 30.14 in 10.0 mi South 4.6 mph - N/A   Clear
3:16 AM 70.3 °F - 64.6 °F 82% 30.14 in 10.0 mi South 3.5 mph - N/A   Clear
3:35 AM 70.2 °F - 64.6 °F 82% 30.14 in 10.0 mi South 3.5 mph - N/A   Clear
3:55 AM 69.8 °F - 64.4 °F 83% 30.16 in 10.0 mi South 4.6 mph - N/A   Clear
4:15 AM 69.3 °F - 64.4 °F 84% 30.16 in 10.0 mi South 3.5 mph - N/A   Clear
4:38 AM 69.8 °F - 64.6 °F 83% 30.16 in 10.0 mi South 3.5 mph - N/A   Scattered Clouds
4:56 AM 70.2 °F - 64.6 °F 82% 30.16 in 10.0 mi SSW 4.6 mph - N/A   Mostly Cloudy
5:15 AM 69.8 °F - 64.4 °F 83% 30.17 in 10.0 mi South 3.5 mph - N/A   Scattered Clouds
5:35 AM 69.4 °F - 64.4 °F 84% 30.17 in 10.0 mi South 3.5 mph - N/A   Clear
5:55 AM 68.9 °F - 64.2 °F 85% 30.17 in 10.0 mi South 4.6 mph - N/A   Clear
6:18 AM 68.2 °F - 64.0 °F 87% 30.18 in 10.0 mi Calm Calm - N/A   Clear
6:36 AM 66.6 °F - 64.0 °F 92% 30.18 in 10.0 mi Calm Calm - N/A   Clear
6:55 AM 67.1 °F - 63.9 °F 89% 30.18 in 10.0 mi Calm Calm - N/A   Clear
7:16 AM 66.7 °F - 63.7 °F 90% 30.19 in 10.0 mi Calm Calm - N/A   Clear
7:35 AM 65.7 °F - 63.7 °F 93% 30.19 in 10.0 mi Calm Calm - N/A   Clear
7:58 AM 65.7 °F - 63.5 °F 93% 30.20 in 10.0 mi Calm Calm - N/A   Clear
8:16 AM 66.2 °F - 63.7 °F 92% 30.20 in 10.0 mi Calm Calm - N/A   Clear
8:35 AM 67.8 °F - 64.6 °F 89% 30.21 in 10.0 mi Calm Calm - N/A   Clear
8:55 AM 69.3 °F - 64.4 °F 84% 30.21 in 10.0 mi South 3.5 mph - N/A   Clear
9:15 AM 70.9 °F - 64.0 °F 79% 30.21 in 10.0 mi South 4.6 mph - N/A   Clear
9:38 AM 72.1 °F - 64.0 °F 76% 30.21 in 10.0 mi SSW 8.1 mph - N/A   Clear
9:56 AM 73.0 °F - 64.4 °F 74% 30.21 in 10.0 mi SSW 5.8 mph - N/A   Clear
10:15 AM 73.9 °F - 64.6 °F 72% 30.22 in 10.0 mi SW 10.4 mph 16.1 mph N/A   Clear
10:35 AM 75.2 °F - 64.6 °F 69% 30.22 in 10.0 mi SW 13.8 mph 17.3 mph N/A   Clear
10:59 AM 76.8 °F - 65.3 °F 67% 30.21 in 10.0 mi WSW 11.5 mph 17.3 mph N/A   Clear
11:18 AM 78.1 °F - 65.7 °F 65% 30.22 in 10.0 mi SSW 8.1 mph - N/A   Clear
11:36 AM 77.4 °F - 64.8 °F 65% 30.22 in 10.0 mi SW 8.1 mph - N/A   Clear
11:55 AM 78.1 °F - 65.3 °F 65% 30.22 in 10.0 mi SSW 6.9 mph - N/A   Clear
12:15 PM 78.8 °F - 65.5 °F 64% 30.21 in 10.0 mi SW 9.2 mph 16.1 mph N/A   Clear
12:39 PM 80.2 °F 82.5 °F 66.6 °F 63% 30.21 in 10.0 mi SW 6.9 mph - N/A   Clear
12:57 PM 80.2 °F 82.6 °F 66.9 °F 64% 30.21 in 10.0 mi WSW 10.4 mph - N/A   Clear
1:16 PM 82.0 °F 84.7 °F 67.3 °F 61% 30.21 in 10.0 mi SW 9.2 mph - N/A   Clear
1:35 PM 82.2 °F 84.9 °F 67.5 °F 61% 30.20 in 10.0 mi SW 9.2 mph - N/A   Clear
1:55 PM 82.2 °F 84.9 °F 67.5 °F 61% 30.20 in 10.0 mi WSW 8.1 mph - N/A   Clear
2:19 PM 83.1 °F 86.1 °F 68.0 °F 60% 30.19 in 10.0 mi WSW 10.4 mph - N/A   Clear
2:37 PM 83.1 °F 86.1 °F 67.8 °F 60% 30.18 in 10.0 mi SW 6.9 mph - N/A   Scattered Clouds
2:55 PM 84.0 °F 87.0 °F 68.0 °F 58% 30.18 in 10.0 mi SSW 6.9 mph - N/A   Scattered Clouds
3:15 PM 84.0 °F 87.6 °F 68.5 °F 60% 30.18 in 10.0 mi SW 11.5 mph - N/A   Mostly Cloudy
3:35 PM 84.4 °F 87.3 °F 67.8 °F 57% 30.17 in 10.0 mi SW 6.9 mph - N/A   Scattered Clouds
3:59 PM 84.6 °F 87.9 °F 68.2 °F 58% 30.17 in 10.0 mi SW 9.2 mph - N/A   Scattered Clouds
4:17 PM 84.9 °F 88.5 °F 68.5 °F 58% 30.17 in 10.0 mi SSW 5.8 mph - N/A   Scattered Clouds
4:35 PM 85.5 °F 89.1 °F 68.5 °F 57% 30.17 in 10.0 mi South 6.9 mph - N/A   Scattered Clouds
4:56 PM 84.7 °F 87.6 °F 67.5 °F 56% 30.17 in 10.0 mi SW 8.1 mph - N/A   Scattered Clouds
5:15 PM 84.4 °F 87.3 °F 67.5 °F 57% 30.16 in 10.0 mi SSW 8.1 mph - N/A   Scattered Clouds
5:39 PM 84.9 °F 88.2 °F 68.0 °F 57% 30.16 in 10.0 mi South 6.9 mph - N/A   Clear
5:56 PM 84.6 °F 87.6 °F 67.6 °F 57% 30.16 in 10.0 mi SW 6.9 mph - N/A   Scattered Clouds
6:15 PM 84.0 °F 86.8 °F 67.3 °F 57% 30.16 in 10.0 mi SSW 9.2 mph - N/A   Clear
6:39 PM 82.8 °F 85.8 °F 68.0 °F 61% 30.16 in 10.0 mi South 4.6 mph - N/A   Clear
6:58 PM 82.4 °F 85.2 °F 67.8 °F 61% 30.16 in 10.0 mi SSW 4.6 mph - N/A   Clear
7:16 PM 80.8 °F 83.5 °F 68.2 °F 65% 30.17 in 10.0 mi South 4.6 mph - N/A   Clear
7:35 PM 79.7 °F - 68.0 °F 67% 30.17 in 10.0 mi SSW 4.6 mph - N/A   Clear
7:55 PM 78.4 °F - 68.0 °F 70% 30.18 in 10.0 mi South 3.5 mph - N/A   Clear
8:19 PM 77.0 °F - 68.0 °F 74% 30.18 in 10.0 mi South 5.8 mph - N/A   Clear
8:37 PM 76.1 °F - 68.0 °F 76% 30.18 in 10.0 mi SSW 4.6 mph - N/A   Clear
8:56 PM 75.7 °F - 67.6 °F 76% 30.19 in 10.0 mi South 3.5 mph - N/A   Clear
9:15 PM 75.4 °F - 67.6 °F 77% 30.19 in 10.0 mi SSW 4.6 mph - N/A   Clear
9:35 PM 75.2 °F - 67.1 °F 76% 30.20 in 10.0 mi SSW 4.6 mph - N/A   Clear
9:59 PM 74.7 °F - 67.1 °F 77% 30.20 in 10.0 mi Calm Calm - N/A   Clear
10:17 PM 73.6 °F - 67.1 °F 80% 30.20 in 10.0 mi Calm Calm - N/A   Clear
10:35 PM 73.0 °F - 67.1 °F 82% 30.21 in 10.0 mi Calm Calm - N/A   Scattered Clouds
10:55 PM 72.7 °F - 67.1 °F 83% 30.21 in 10.0 mi SSW 3.5 mph - N/A   Clear
11:15 PM 73.2 °F - 67.1 °F 81% 30.21 in 10.0 mi SSW 3.5 mph - N/A   Mostly Cloudy
11:39 PM 73.8 °F - 67.1 °F 80% 30.21 in 10.0 mi Calm Calm - N/A   Mostly Cloudy
11:57 PM 72.1 °F - 66.7 °F 83% 30.21 in 10.0 mi Calm Calm - N/A   Mostly Cloudy